Regional Weather Roundup
Issued by NWS

Home | Current Version | Previous Version | Graphics & Text | Print | Product List | Glossary On
Versions: 1 2 3 4 5 6 7 8 9 10 11 12 13 14 15 16 17 18 19 20 21 22 23 24 25 26 27 28 29 30 31 32 33 34 35 36 37 38 39 40 41 42 43 44 45 46 47 48 49 50
419
ASUS43 KBIS 061810
RWRND

NORTH DAKOTA REGIONAL WEATHER ROUNDUP
NATIONAL WEATHER SERVICE BISMARCK ND
1200 PM CST TUE DEC 06 2016

NOTE: "FAIR" INDICATES FEW OR NO CLOUDS BELOW 12,000 FEET WITH NO
SIGNIFICANT WEATHER AND/OR OBSTRUCTIONS TO VISIBILITY.


NDZ001>003-009>011-017-061900-
NORTHWEST NORTH DAKOTA

CITY           SKY/WX    TMP DP  RH WIND       PRES   REMARKS
WILLISTON      CLOUDY     6  -1  73 NW22      30.05R WCI -15
6HR MIN TEMP:   4; 6HR MAX TEMP:   7; 6HR PCP: TRACE;

MINOT          SNOW      10   6  84 W33G45    29.83S VSB 1/4 WCI -13
MINOT AFB      SNOW       9   6  85 NW38G46   29.81S VSB<1/4 WCI -16
$$

NDZ018>021-031>035-040>046-061900-
SOUTHWEST NORTH DAKOTA

CITY           SKY/WX    TMP DP  RH WIND       PRES   REMARKS
BISMARCK       LGT SNOW   8   7  95 NW26G45   29.88R VSB 1   WCI -14
6HR MIN TEMP:   8; 6HR MAX TEMP:  11; 6HR PCP:  0.30;

DICKINSON      MIX PCPN   2  -5  72 NW31      29.94R VSB 1   WCI -24
GARRISON         N/A      8   4  83 MISG      29.84S
6HR MIN TEMP:   7; 6HR MAX TEMP:   9; 6HR PCP:  0.07;

HETTINGER ARPT CLOUDY     4  -2  76 NW29G39   29.96S HAZE    WCI -20
$$

NDZ004>008-012>016-024-026-027-054-061900-
NORTHEAST NORTH DAKOTA

CITY           SKY/WX    TMP DP  RH WIND       PRES   REMARKS
GRAND FORKS    LGT SNOW  26  22  84 N22G28    29.36R VSB 1   WCI  12
GRND FRKS AFB  HVY SNOW  25  23  93 NW31G41   29.37R VSB 1/4 WCI   8
DEVILS LAKE    SNOW      18  16  92 NW30G39   29.55R VSB 1/2 WCI  -1
$$

NDZ022-023-025-028>030-036>039-047>053-061900-
SOUTHEAST NORTH DAKOTA

CITY           SKY/WX    TMP DP  RH WIND       PRES   REMARKS
FARGO          LGT SNOW  21  17  84 W35G46    29.45R VSB 3/4 WCI   2
6HR MIN TEMP:  21; 6HR MAX TEMP:  30; 6HR PCP:  0.05;

JAMESTOWN      SNOW      15  11  83 NW38G47   29.62R VSB 1/4 WCI  -7
$$





USA.gov is the U.S. government's official web portal to all federal, state and local government web resources and services.